EW0927 Providence RI US current weather conditions

sailwx.info

Wind from 022 at 2 knots gusting 6

Air temperature 2.8° C
Dewpoint 1.5° C

Last reported at 2020-Jan-25 10:03 UTC.
Time now 2020-Jan-25 10:24 UTC

Location: N 41°50' W 071°24'.
View on Google Maps.

See reports from other nearby stations

  
Tides and Currents Weather Stations Pressure Air Temp Water Temp Dewpoint Dewpoint Depression Visibility Wind Speed Wind Dir Waves Ship Positions
date/time (UTC)wind fromknots sea level pressurealtimeterstation pressurevisibilityair tempwater tempwave heightnotes
2020-Jan-25 10:03 022 2 gusting 6 2.8
2020-Jan-25 09:46 063 0 gusting 3 2.2
2020-Jan-25 09:31 027 0 gusting 3 2.2
2020-Jan-25 09:17 034 2 gusting 4 2.8
2020-Jan-25 09:02 048 2.8
2020-Jan-25 08:45 055 1 gusting 4 2.8
2020-Jan-25 08:32 045 1 gusting 5 2.8
2020-Jan-25 08:16 071 1 gusting 5 2.8
2020-Jan-25 08:01 036 0 gusting 6 2.8
2020-Jan-25 07:47 061 1 gusting 4 2.8
2020-Jan-25 07:30 055 0 gusting 3 2.8
2020-Jan-25 07:16 061 0 gusting 4 2.8
2020-Jan-25 07:01 071 1 gusting 4 2.8
2020-Jan-25 06:46 032 1 gusting 3 2.8
2020-Jan-25 06:30 066 2.8
2020-Jan-25 06:16 080 2 gusting 6 2.8
2020-Jan-25 06:01 047 1 gusting 4 2.8
2020-Jan-25 05:47 074 0 gusting 5 3.3
2020-Jan-25 05:31 046 2 gusting 5 3.3
2020-Jan-25 05:15 063 0 gusting 4 3.3
2020-Jan-25 05:00 063 0 gusting 4 3.3
2020-Jan-25 04:45 048 1 gusting 4 3.3
2020-Jan-25 04:30 071 0 gusting 4 3.3
2020-Jan-25 04:15 059 3.3
2020-Jan-25 04:01 096 0 gusting 3 3.3
2020-Jan-25 03:45 036 1 gusting 6 3.3
2020-Jan-25 03:30 072 0 gusting 2 3.3
2020-Jan-25 03:15 079 0 gusting 4 3.3
2020-Jan-25 03:01 053 1 gusting 6 3.3
2020-Jan-25 02:45 094 3.3
2020-Jan-25 02:30 015 1 gusting 5 3.3
2020-Jan-25 02:15 022 0 gusting 3 3.3
2020-Jan-25 02:00 051 0 gusting 6 3.3
2020-Jan-25 01:45 051 0 gusting 3 3.3
2020-Jan-25 01:31 034 1 gusting 5 3.3
2020-Jan-25 01:15 028 1 gusting 6 3.3
2020-Jan-25 01:00 013 0 gusting 5 3.9
2020-Jan-25 00:45 026 2 gusting 5 3.9
2020-Jan-25 00:30 080 1 gusting 5 3.9
2020-Jan-25 00:15 058 1 gusting 3 3.9
2020-Jan-25 00:00 059 1 gusting 6 4.4
2020-Jan-24 23:45 032 3 gusting 7 4.4
2020-Jan-24 23:30 020 2 gusting 6 5.0
2020-Jan-24 23:15 014 1 gusting 5 5.0
2020-Jan-24 23:00 062 2 gusting 6 5.6
2020-Jan-24 22:45 055 0 gusting 4 6.1
2020-Jan-24 22:30 057 0 gusting 6 6.1
2020-Jan-24 22:15 026 0 gusting 4 6.7
2020-Jan-24 22:01 022 2 gusting 6 6.7
2020-Jan-24 21:48 051 0 gusting 4 7.2
2020-Jan-24 21:32 040 1 gusting 5 7.2
2020-Jan-24 21:17 024 2 gusting 6 7.8
2020-Jan-24 21:02 046 1 gusting 6 8.3
2020-Jan-24 20:47 124 2 gusting 6 8.3
2020-Jan-24 20:31 010 2 gusting 7 8.3
2020-Jan-24 20:16 355 2 gusting 6 8.9
2020-Jan-24 20:04 048 3 gusting 8 8.9
2020-Jan-24 19:48 117 2 gusting 7 9.4
2020-Jan-24 19:31 041 2 gusting 7 9.4
2020-Jan-24 19:17 029 3 gusting 7 9.4
2020-Jan-24 19:02 040 4 gusting 8 9.4
2020-Jan-24 18:46 031 3 gusting 8 9.4
2020-Jan-24 18:31 059 2 gusting 7 8.9
2020-Jan-24 18:17 068 2 gusting 7 8.9
2020-Jan-24 18:02 071 4 gusting 7 8.9
2020-Jan-24 17:46 040 2 gusting 6 8.3
2020-Jan-24 17:31 038 2 gusting 8 8.3
2020-Jan-24 17:18 024 1 gusting 5 7.8
2020-Jan-24 17:01 057 2 gusting 6 8.3
2020-Jan-24 16:46 117 8.3
2020-Jan-24 16:31 360 0 gusting 6 7.8
2020-Jan-24 16:15 060 0 gusting 4 7.2
2020-Jan-24 16:01 040 0 gusting 3 6.7
2020-Jan-24 15:46 059 0 gusting 5 6.7
2020-Jan-24 15:30 009 0 gusting 4 5.6
2020-Jan-24 15:16 308 5.6
2020-Jan-24 15:01 034 0 gusting 3 5.0
2020-Jan-24 14:45 300 0 gusting 5 3.9
2020-Jan-24 14:30 019 3.3
2020-Jan-24 14:15 327 1 gusting 5 2.8
2020-Jan-24 14:00 049 2 gusting 6 2.8
2020-Jan-24 13:45 045 2.8
2020-Jan-24 13:30 005 0 gusting 3 2.8
2020-Jan-24 13:15 034 2.8
2020-Jan-24 13:04 015 1 gusting 3 1.7
2020-Jan-24 12:46 053 1.1
2020-Jan-24 12:31 018 1.1
2020-Jan-24 12:17 005 0.6
2020-Jan-24 12:01 360 0.6
2020-Jan-24 11:46 360 0.6
2020-Jan-24 11:32 360 1.1
2020-Jan-24 11:17 360 1.1
2020-Jan-24 11:01 349 1.1
2020-Jan-24 10:47 351 1.1
2020-Jan-24 10:31 330 0 gusting 1 1.1
2020-Jan-24 10:17 258 1.1
2020-Jan-24 10:02 258 1.1
2020-Jan-24 09:46 258 1.1
2020-Jan-24 09:32 258 1.1
2020-Jan-24 09:17 252 1.1
2020-Jan-24 09:01 251 1.7
2020-Jan-24 08:46 251 1.7
2020-Jan-24 08:31 251 1.7
2020-Jan-24 08:16 251 0 gusting 1 1.7
2020-Jan-24 08:02 241 1.1
2020-Jan-24 07:47 241 1.1
2020-Jan-24 07:31 241 1.1
2020-Jan-24 07:16 241 1.1
2020-Jan-24 07:01 349 1.1
2020-Jan-24 06:46 349 1.7
2020-Jan-24 06:31 303 1.7
2020-Jan-24 06:15 302 0 gusting 2 2.2
2020-Jan-24 06:00 215 1.7
2020-Jan-24 05:45 215 1.7
2020-Jan-24 05:30 215 2.2
2020-Jan-24 05:16 215 2.2
2020-Jan-24 05:01 215 0 gusting 2 2.2
2020-Jan-24 04:45 215 1.7
2020-Jan-24 04:30 215 2.2
2020-Jan-24 04:15 215 2.2
2020-Jan-24 04:00 215 2.2
2020-Jan-24 03:45 215 1 gusting 3 2.2
2020-Jan-24 03:30 194 2.2
2020-Jan-24 03:15 227 2.2
2020-Jan-24 03:00 227 0 gusting 3 2.8
2020-Jan-24 02:45 206 2.8
2020-Jan-24 02:30 203 2 gusting 4 2.8
2020-Jan-24 02:15 207 2 gusting 4 2.8
2020-Jan-24 02:00 179 1 gusting 3 2.8
2020-Jan-24 01:45 198 1 gusting 3 3.3
2020-Jan-24 01:30 212 1 gusting 3 3.3
2020-Jan-24 01:15 212 3.9
2020-Jan-24 01:01 212 0 gusting 2 3.9
2020-Jan-24 00:45 212 0 gusting 2 4.4
2020-Jan-24 00:30 246 4.4
2020-Jan-24 00:15 235 0 gusting 6 4.4
2020-Jan-24 00:00 208 2 gusting 5 4.4
2020-Jan-23 23:45 215 4 gusting 7 4.4
2020-Jan-23 23:30 207 0 gusting 5 3.9
2020-Jan-23 23:15 171 3.9
2020-Jan-23 23:00 178 1 gusting 4 3.9
2020-Jan-23 22:45 175 1 gusting 5 4.4
2020-Jan-23 22:31 192 2 gusting 5 4.4
2020-Jan-23 22:18 157 0 gusting 4 5.6
2020-Jan-23 22:03 238 6.7
2020-Jan-23 21:48 252 1 gusting 5 6.7
2020-Jan-23 21:33 223 1 gusting 5 6.7
2020-Jan-23 21:18 187 6.1
2020-Jan-23 21:02 177 0 gusting 4 7.2
2020-Jan-23 20:46 236 2 gusting 5 7.2
2020-Jan-23 20:32 223 2 gusting 6 7.8
2020-Jan-23 20:16 244 2 gusting 6 7.8
2020-Jan-23 20:01 224 3 gusting 6 8.3
2020-Jan-23 19:46 253 2 gusting 6 8.3
2020-Jan-23 19:32 213 3 gusting 6 8.3
2020-Jan-23 19:16 230 1 gusting 6 8.9
2020-Jan-23 19:01 235 2 gusting 6 8.9
2020-Jan-23 18:46 240 1 gusting 7 8.3
2020-Jan-23 18:31 188 1 gusting 6 8.3
2020-Jan-23 18:18 246 2 gusting 9 7.8
2020-Jan-23 18:01 207 3 gusting 8 7.8
2020-Jan-23 17:46 246 2 gusting 7 7.2
2020-Jan-23 17:31 198 3 gusting 7 6.7
2020-Jan-23 17:15 199 2 gusting 6 6.7
2020-Jan-23 17:01 243 2 gusting 6 6.1
2020-Jan-23 16:45 209 3 gusting 7 5.6
2020-Jan-23 16:31 195 2 gusting 8 5.6
2020-Jan-23 16:17 203 4 gusting 7 5.0
2020-Jan-23 16:01 231 6 gusting 9 4.4
2020-Jan-23 15:45 182 2 gusting 6 3.9
2020-Jan-23 15:30 240 2 gusting 6 3.3
2020-Jan-23 15:15 159 2 gusting 6 2.8
2020-Jan-23 15:00 219 1 gusting 4 2.2
2020-Jan-23 14:46 221 2 gusting 6 1.7
2020-Jan-23 14:31 209 2 gusting 6 0.6
2020-Jan-23 14:16 210 3 gusting 6 -0.0
2020-Jan-23 14:02 225 3 gusting 6 -0.6
2020-Jan-23 13:46 219 2 gusting 6 -1.1
2020-Jan-23 13:31 196 3 gusting 5 -1.7
2020-Jan-23 13:16 194 0 gusting 4 -2.2
2020-Jan-23 13:01 227 0 gusting 3 -2.8
2020-Jan-23 12:46 209 0 gusting 2 -3.3
2020-Jan-23 12:31 211 2 gusting 4 -3.3
2020-Jan-23 12:16 209 3 gusting 5 -3.9
2020-Jan-23 12:01 196 2 gusting 4 -3.9
2020-Jan-23 11:46 194 2 gusting 4 -3.9
2020-Jan-23 11:31 201 -3.9
2020-Jan-23 11:30 201 -3.9
2020-Jan-23 11:15 184 3 gusting 5 -3.9
2020-Jan-23 11:01 219 -3.9
2020-Jan-23 10:45 219 1 gusting 3 -3.9
2020-Jan-23 10:30 205 0 gusting 4 -3.9
2020-Jan-23 10:15 201 1 gusting 4 -3.9
2020-Jan-23 10:03 211 0 gusting 2 -3.9